TimeCST,TemperatureF,Dew PointF,Humidity,Sea Level PressureIn,VisibilityMPH,Wind Direction,Wind SpeedMPH,Gust SpeedMPH,PrecipitationIn,Events,Conditions,WindDirDegrees,DateUTC
12:55 AM,17.8,9.9,71,30.32,10.0,NNW,19.6,-,N/A,,Overcast,330,2012-12-26 06:55:00
1:48 AM,17.6,8.6,68,30.29,10.0,North,17.3,-,N/A,,Overcast,360,2012-12-26 07:48:00
1:55 AM,17.6,8.8,68,30.28,10.0,North,18.4,-,N/A,,Overcast,350,2012-12-26 07:55:00
2:45 AM,15.8,6.8,68,30.27,10.0,North,16.1,-,N/A,,Scattered Clouds,10,2012-12-26 08:45:00
2:55 AM,16.2,6.6,66,30.27,10.0,North,16.1,-,N/A,,Scattered Clouds,10,2012-12-26 08:55:00
3:55 AM,14.7,5.9,68,30.30,10.0,NNW,10.4,-,N/A,,Clear,340,2012-12-26 09:55:00
4:27 AM,14.0,6.8,73,30.32,10.0,WNW,12.7,-,N/A,,Mostly Cloudy,290,2012-12-26 10:27:00
4:55 AM,14.0,6.3,71,30.31,10.0,WNW,11.5,-,N/A,,Overcast,300,2012-12-26 10:55:00
5:03 AM,14.0,6.8,73,30.31,10.0,WNW,11.5,-,N/A,,Overcast,290,2012-12-26 11:03:00
5:55 AM,13.1,5.5,72,30.32,10.0,NW,12.7,-,N/A,,Mostly Cloudy,310,2012-12-26 11:55:00
6:55 AM,12.7,6.3,75,30.30,10.0,NNW,13.8,-,N/A,,Clear,340,2012-12-26 12:55:00
7:55 AM,12.7,5.9,74,30.30,10.0,North,10.4,-,N/A,,Clear,350,2012-12-26 13:55:00
8:55 AM,13.8,6.4,72,30.34,10.0,NW,10.4,-,N/A,,Clear,310,2012-12-26 14:55:00
9:55 AM,15.6,7.3,70,30.35,10.0,NW,6.9,-,N/A,,Clear,320,2012-12-26 15:55:00
10:55 AM,17.8,8.6,67,30.34,10.0,North,5.8,-,N/A,,Clear,350,2012-12-26 16:55:00
11:55 AM,20.7,9.5,62,30.31,10.0,NE,10.4,-,N/A,,Partly Cloudy,40,2012-12-26 17:55:00
12:55 PM,21.6,10.6,63,30.26,10.0,NNE,9.2,-,N/A,,Partly Cloudy,30,2012-12-26 18:55:00
1:55 PM,23.7,11.3,59,30.24,10.0,ENE,3.5,-,N/A,,Scattered Clouds,60,2012-12-26 19:55:00
2:55 PM,25.0,11.1,56,30.22,10.0,Calm,Calm,-,N/A,,Partly Cloudy,0,2012-12-26 20:55:00
3:55 PM,23.7,11.7,60,30.20,10.0,ESE,4.6,-,N/A,,Clear,120,2012-12-26 21:55:00
4:55 PM,22.6,13.3,67,30.18,10.0,East,3.5,-,N/A,,Clear,90,2012-12-26 22:55:00
5:55 PM,21.4,14.2,74,30.17,10.0,Calm,Calm,-,N/A,,Clear,0,2012-12-26 23:55:00
6:55 PM,18.5,12.7,78,30.16,10.0,SE,5.8,-,N/A,,Clear,130,2012-12-27 00:55:00
7:55 PM,19.0,13.3,78,30.14,10.0,ESE,8.1,-,N/A,,Clear,120,2012-12-27 01:55:00
8:55 PM,17.2,12.7,83,30.14,10.0,SE,5.8,-,N/A,,Clear,130,2012-12-27 02:55:00
9:55 PM,16.9,12.7,84,30.14,10.0,SE,4.6,-,N/A,,Mostly Cloudy,130,2012-12-27 03:55:00
10:55 PM,19.8,14.9,81,30.12,10.0,SE,3.5,-,N/A,,Overcast,140,2012-12-27 04:55:00